Terug naar catalogus

GLOBALSTAR M027

ActiefCommunicatieMEO
NORAD 25884·PAYLOAD·🇺🇸 United States

Gelanceerd Aug 17, 1999 vanaf Cape Canaveral Space Force Station

Loading…

Volgende Passages (komende 24 uur)

TLE

VersSource: Space-Track

Epoch: Sep 14, 2026, 03:27 UTC

1 25884U 99043B   26257.14386196 -.00000091  00000-0 -10377-2 0  9994
2 25884  52.0192 167.1734 0021759   5.8887 354.2159 11.04374964191398

Volg GLOBALSTAR M027 in realtime met AllMySat

Download on the App Store